Flag for U.S.A. Weather past 2 weeks in Grand Rapids, Michigan, U.S.A.

Now
69 °F

Partly sunny.


Feels Like: 69 °F
Forecast: 51 / 71 °F
Wind: 5 mph from South

Location: Kent County International Airport

Current Time: Aug 27, 2015 at 6:03:35 PM

Latest Report: Aug 27, 2015 at 4:53 PM


Visibility: 10 mi

Pressure: 30.17 "Hg

Humidity: 61%

Dew point: 55 °F

Location of Grand RapidsLocation

Historic Weather in Grand Rapids — Graph

°F

Grand Rapids temperature yesterday

Maximum temperature yesterday: 67 °F (at 3:53 PM)
Minimum temperature yesterday: 58 °F (at 1:53 AM)
Average temperature yesterday: 62 °F

Past Weeks' High & Low Weather Summary

 TemperatureHumidityPressure
High88 °F (Aug 16, 1:53 PM)100% (Aug 23, 3:03 PM)30.24 "Hg (Aug 23, 3:03 PM)
Low52 °F (Aug 27, 4:53 AM)39% (Aug 12, 4:53 PM)29.67 "Hg (Aug 19, 5:53 PM)
Average69 °F76%29.99 "Hg
* Reported Aug 12 3:53 PM — Aug 27 3:53 PM, Grand Rapids, Weather by CustomWeather, © 2015

Note: Actual official high and low records may vary slightly from our data, if they occured in-between our weather recording intervals... More about our weather records

Advertising

Grand Rapids weather history for previous 24 hours

 ConditionsComfort  
Time TempWeatherWind HumidityBarometerVisibility
3:53 PM
Thu, Aug 27
69 °FOvercast.3 mph59%30.17 "Hg10 mi
2:53 PM71 °FPartly sunny.5 mph55%30.17 "Hg10 mi
1:53 PM69 °FPartly sunny.3 mph59%30.18 "Hg10 mi
12:53 PM69 °FScattered clouds.6 mph59%30.19 "Hg10 mi
11:53 AM66 °FPassing clouds.7 mph65%30.20 "Hg10 mi
10:53 AM63 °FPartly sunny.8 mph73%30.23 "Hg10 mi
9:53 AM61 °FOvercast.3 mph72%30.24 "Hg10 mi
8:53 AM59 °FOvercast.3 mph87%30.24 "Hg10 mi
7:53 AM56 °FOvercast.No wind93%30.21 "Hg10 mi
6:53 AM54 °FOvercast.3 mph97%30.20 "Hg10 mi
5:53 AM53 °FPassing clouds.No wind93%30.19 "Hg10 mi
4:53 AM52 °FPartly cloudy.No wind93%30.17 "Hg10 mi
3:53 AM55 °FClear.No wind90%30.16 "Hg10 mi
2:53 AM56 °FClear.3 mph87%30.16 "Hg10 mi
1:53 AM58 °FPassing clouds.3 mph84%30.17 "Hg10 mi
12:53 AM60 °FOvercast.6 mph78%30.16 "Hg10 mi
11:53 PM
Wed, Aug 26
62 °FOvercast.6 mph78%30.16 "Hg10 mi
10:53 PM63 °FOvercast.5 mph78%30.16 "Hg10 mi
9:53 PM63 °FOvercast.5 mph75%30.16 "Hg10 mi
8:53 PM63 °FPartly sunny.7 mph75%30.14 "Hg10 mi
7:53 PM63 °FPartly sunny.8 mph75%30.13 "Hg10 mi
6:53 PM64 °FBroken clouds.8 mph70%30.13 "Hg10 mi
Weather by CustomWeather, © 2015

See weather overviewHow to use our weather pages